258  
SXUS52 KJAX 100514  
OSOJAX  
OTHER SURFACE OBSERVATIONS  
NATIONAL WEATHER SERVICE JACKSONVILLE FL  
100 AM EDT WED AUG 10 2022  
 
FLZ020>025-030>033-035>038-040-100600-   
..FLORIDA
 
 
 
CITY SKY/WX TMP DP RH WIND PRES REMARKS  
CECIL FIELD PTCLDY 77 79 100 CALM 30.18S  
FERNANDINA BCH FAIR 81 77 89 S3 30.19R  
LAKE CITY FAIR 72 70 94 CALM 30.18F  
KEYSTONE HGTS CLOUDY 77 77 100 VRB3 30.18S  

 
 
GAZ132>136-149>154-162>166-100600-   
..GEORGIA
 
 
 
CITY SKY/WX TMP DP RH WIND PRES REMARKS  
JESUP FAIR 73 70 88 CALM 30.21R  
HOMERVILLE FAIR 72 70 94 SE3 30.19S  
SWAINSBORO FAIR 73 73 100 CALM 30.17R  
CORDELE LGT RAIN 73 70 89 SE12 30.17R  
EASTMAN FAIR 70 70 100 S6 30.17R  

 
 
PLEASE NOTE: THESE OBSERVATIONS ARE NOT QUALITY CONTROLLED AND MAY  
NOT BE AVAILABLE AT ALL TIMES.  

 
 
 
CLICK HERE TO GO TO PREVIOUS BULLETINS.

The Nexlab FL Page
The Nexlab GA Page Main Text Page